Regional Weather Roundup
Issued by NWS

Home | Current Version | Previous Version | Graphics & Text | Print | Product List | Glossary On
Versions: 1 2 3 4 5 6 7 8 9 10 11 12 13 14 15 16 17 18 19 20 21 22 23 24 25 26 27 28 29 30 31 32 33 34 35 36 37 38 39 40 41 42 43 44 45 46 47 48 49 50
717
ASUS43 KMKX 131700
RWRWI

WISCONSIN REGIONAL WEATHER ROUNDUP
NATIONAL WEATHER SERVICE MILWAUKEE/SULLIVAN WI
1100 AM CST SAT FEB 13 2016

NOTE: "FAIR" INDICATES FEW OR NO CLOUDS BELOW 12,000 FEET WITH NO
SIGNIFICANT WEATHER AND/OR OBSTRUCTIONS TO VISIBILITY.

WIZ001-002-006>008-014>016-023>028-131800-
NORTHWEST WISCONSIN

CITY           SKY/WX    TMP DP  RH WIND       PRES   REMARKS
SUPERIOR ARPT  SUNNY     -5 -17  56 SW7       30.63F WCI -19
ASHLAND        SUNNY     -1 -10  65 S6        30.58F WCI -13
HAYWARD        SUNNY     -4 -16  56 S6        30.55F WCI -16
SIREN          SUNNY     -2 -15  52 CALM      30.61S
CUMBERLAND     SUNNY     -4 -17  54 CALM      30.57S
RICE LAKE      SUNNY     -5 -17  56 CALM      30.61S
CHETEK         SUNNY     -3 -16  54 CALM      30.60F
LADYSMITH      SUNNY     -3 -14  59 CALM      30.57S
EAU CLAIRE     NOT AVBL
MENOMONIE      SUNNY      5 -14  41 CALM      30.63F
NEW RICHMOND   SUNNY     -1 -15  50 CALM      30.62S
OSCEOLA        SUNNY      0 -13  54 CALM      30.66S
$$

WIZ003>005-009-010-017-018-131800-
NORTH CENTRAL WISCONSIN

CITY           SKY/WX    TMP DP  RH WIND       PRES   REMARKS
MANITOWISH WTR PTSUNNY    0  -7  71 NW8       30.45F WCI -14
ARBOR VITAE    MOSUNNY    2  -6  69 NW3       30.45F
WOODRUFF       MOSUNNY    2  -6  69 NW3       30.45F
RHINELANDER    MOSUNNY    2  -8  63 MISG      30.45F
EAGLE RIVER    PTSUNNY    2  -8  61 NW10G16   30.44S WCI -14
LAND O LAKES   CLOUDY     4  -4  68 NW9       30.43R HAZE    WCI -10
PHILLIPS       SUNNY     -5 -12  70 CALM      30.50S
TOMAHAWK       SUNNY     -2 -10  67 NW5       30.50F WCI -12
MEDFORD        SUNNY     -3 -13  61 NW3       30.51S
MERRILL        SUNNY      1 -10  61 N6        30.51F WCI -11
$$

WIZ029-030-035-036-043>047-131800-
CENTRAL WISCONSIN

CITY           SKY/WX    TMP DP  RH WIND       PRES   REMARKS
WAUSAU         SUNNY      1 -10  60 NW7       30.52F WCI -12
MOSINEE        SUNNY      0  -9  65 NW9       30.53F WCI -16
MARSHFIELD     SUNNY     -1 -13  56 NW8       30.54S WCI -15
STEVENS POINT  SUNNY      1 -12  54 W5        30.55S WCI  -9
WAUPACA        SUNNY      6 -10  46 W5        30.57F WCI  -3
WAUTOMA        NOT AVBL
WISC RAPIDS    SUNNY      1 -12  54 N10       30.58S WCI -15
CAMP DOUGLAS   NOT AVBL
$$

WIZ011>013-019>022-031-037>040-048>050-131800-
NORTHEAST WISCONSIN

CITY           SKY/WX    TMP DP  RH WIND       PRES   REMARKS
ANTIGO         SUNNY     -1  -9  66 NW9       30.47F WCI -16
SHAWANO        SUNNY      6  -8  52 W7        30.55F WCI  -6
OCONTO         SUNNY      5  -8  54 NW7       30.54S WCI  -7
STURGEON BAY   SUNNY      5  -8  56 NW16G22   30.53R WCI -14
GREEN BAY      SUNNY      5  -7  57 W9        30.55F WCI  -9
MANITOWOC      NOT AVBL
APPLETON       SUNNY      3 -11  51 W12       30.53S WCI -13
CLINTONVILLE   SUNNY      3  -9  55 NW9       30.55F WCI -11
OSHKOSH        SUNNY      3  -9  57 NW7       30.56S WCI  -9
$$

WIZ032>034-041-042-053>061-131800-
SOUTHWEST WISCONSIN

CITY           SKY/WX    TMP DP  RH WIND       PRES   REMARKS
LA CROSSE      SUNNY      3 -12  49 N6        30.66S WCI  -8
SPARTA         SUNNY      2 -12  51 CALM      30.63S
VIROQUA        SUNNY      0 -13  53 W5        30.57S WCI -10
BOSCOBEL       SUNNY      6 -12  43 NW5       30.65F WCI  -3
PRAIRIE DU CHI SUNNY      3 -14  44 NW3       30.66F
PLATTEVILLE    SUNNY      2 -10  55 NW5       30.61S WCI  -7
$$

WIZ056-057-062-063-064-067-068-131800-
SOUTH CENTRAL WISCONSIN

CITY           SKY/WX    TMP DP  RH WIND       PRES   REMARKS
REEDSBURG      SUNNY      1 -12  55 SW8       30.60R WCI -13
BARABOO/DELLS  SUNNY      1 -13  51 W3        30.58S
LONE ROCK      NOT AVBL
MINERAL POINT  SUNNY      3 -13  47 W7        30.58S WCI  -9
MADISON        SUNNY      3 -11  52 VRB7      30.60R WCI  -9
MIDDLETON      SUNNY      4 -10  51 W3        30.60R
WATERTOWN      SUNNY      5  -8  57 NW8       30.57S WCI  -9
MONROE         SUNNY      7  -9  47 W8        30.57S WCI  -6
JANESVILLE     SUNNY      9  -8  47 NW7       30.60R WCI  -3
$$

WIZ051-052-058>065-066-070>072-131800-
SOUTHEAST WISCONSIN

CITY           SKY/WX    TMP DP  RH WIND       PRES   REMARKS
MILWAUKEE      MOSUNNY    8  -9  45 NW13      30.57F WCI  -8
WAUKESHA       SUNNY      3  -9  55 NW12      30.57S WCI -13
MILWAUKEE/TIMM SUNNY      7  -9  47 NW8       30.58S WCI  -6
RACINE         SUNNY      8  -9  45 N12G21    30.58F WCI  -7
BURLINGTON     SUNNY      6  -9  50 NW7       30.57F WCI  -6
KENOSHA        SUNNY      9  -5  53 NW9G17    30.57F WCI  -4
FOND DU LAC    SUNNY      3  -9  57 NW13      30.57S WCI -14
SHEBOYGAN      SUNNY      3  -9  57 NW13      30.55S WCI -14
WEST BEND      SUNNY      5  -9  51 CALM      30.55F
JUNEAU         SUNNY      0 -10  61 NW6       30.58S WCI -11
$$

LSZ147-162-131800-
LAKE SUPERIOR

STATION/POSITION TIME  TEMP    WIND        PRES    WAVE
                       AIR SEA DIR/SP/G            HT/PER
                 (UTC) (F)     (DEG/KT/KT) (MB)    (FT/S)
DEVILS ISLAND    1600    2     290/ 10/ 13 1037.7R
SAXON HARBOR     1640    2                 1035.6S
$$

LMZ867-665-643>646-131800-
LAKE MICHIGAN

STATION/POSITION TIME  TEMP    WIND        PRES    WAVE
                       AIR SEA DIR/SP/G            HT/PER
                 (UTC) (F)     (DEG/KT/KT) (MB)    (FT/S)
CHAMBERS ISLAND  1600    6     300/ 12/ 18 1032.5R
SISTER BAY       1605    9     330/ 21/ 24   N/A
ALGOMA LAKESHORE 1541          330/  6/ 13   N/A
KEWAUNEE LAKESHO 1600    3     300/ 12/ 16 1032.7R
SHEBOYGAN LAKESH 1600    2     280/ 15/ 19 1036.8R
PORT WASHINGTON  1600    4     300/  9/ 14 1036.2R
MILWAUKEE LAKESH 1610    5     300/ 11/ 14   N/A
KENOSHA   LAKESH 1600    5     300/ 12/ 18 1035.6R
$$

TC  - TEMPERATURE IN CELSIUS
VSB - VISIBILITY IN STATUTE MILES
WCI - WIND CHILL INDEX
HX  - HEAT INDEX





USA.gov is the U.S. government's official web portal to all federal, state and local government web resources and services.